Location: Chmeli�t?
(49.8978°N, 15.0526°E)
Time: 09:13:04
(UTC+00:00)

Cosmos 2074 Rocket - Pass Details

Date: 07 June 2020
Orbit: 966 x 987 km, 82.9° (Epoch: 11 July)

Event Time Altitude Azimuth Distance (km) Brightness Sun altitude
Exits shadow 00:51:24 17° 196° (SSW) 2,254 5.3 -13.1°
Maximum altitude 00:56:22 77° 280° (W) 1,015 4.1 -12.8°
Drops below altitude 10° 01:02:41 10° 7° (N) 2,745 7.5 -12.3°
Sets 01:05:13 0° 9° (N) 3,694 8.5 -12.1°
